マックホルツ彗星

C/2010 F4 ( Machholz )

English version
Home page
Updated on August 22, 2010

---------------------------------------------------------------------

・ プロフィール

発見日 2010年3月23日
発見光度 11等
発見者 Don Machholz (Colfax, CA, U.S.A.)

・ 写真集

・ 軌道要素

T 2010 Apr. 6.109 TT                                    MPC
q   0.61383              (2000.0)            P               Q
                   Peri.  120.718       +0.286818       +0.458089
                   Node   237.294       +0.046051       +0.870654
e   1.0            Incl.   89.143       +0.956877       -0.179211
From 67 observations 2010 Mar. 26-Apr. 6.

・ 星図

・ 光度変化

        m1 = 14.0 + 5 logΔ + 15.0 log r

---------------------------------------------------------------------

軌道要素はM.P.E.C. 2010-G43に掲載されたものです。
星図はステラナビゲータ Ver.8 (アストロアーツ) で作成したものです。
光度グラフはComet for Windowsで作成したものです。

---------------------------------------------------------------------

Copyright(C) Seiichi Yoshida (comet@aerith.net). All rights reserved.